GSAT-31

Last updated on Sun Oct 06 2024 00:02:41 GMT+0000 (Coordinated Universal Time)

1 44035U 19007B 24279.55036310 .00000135 00000+0 00000+0 0 9997 2 44035 0.0256 100.2753 0004844 136.3202 24.1436 1.00273228 20755
UTC large
Height (km)
Speed (km/s)
/
Latitude / Longitude
Inclination (degrees)
Orbital Period (minutes)
Azimuth
Elevation
Range (km)
Doppler Factor

Next 0 passes for location: London (51.5072 / 0.1276)

Sorry there are no passes over London.